period_start,C,m1,H,J0,J1,J2,J3,J4,J5,JA,JB,JC,JD,JJ,JK,JN,#
2015-12-16 00:00:05,0.22,1.94,0.00,13.96,18.44,22.26,15.01,50.14,1013.69,2067.00,2858.33,2711.12,3036.05,599.75,612.78,9.58,0000 0000 0000 0000 000000
2015-12-16 00:05:06,0.19,1.95,0.00,13.95,18.44,22.24,15.06,50.38,1013.69,2067.00,2854.85,2708.53,3033.18,600.19,613.25,9.63,0000 0000 0000 0000 000000
2015-12-16 00:10:07,0.20,1.96,0.00,13.97,18.46,22.31,15.00,50.26,1013.69,2067.00,2851.48,2706.09,3030.44,599.86,612.86,9.68,0000 0000 0000 0000 000000
2015-12-16 00:15:09,0.18,1.97,0.00,13.98,18.47,22.26,15.08,50.38,1013.69,2067.00,2848.36,2703.70,3027.79,599.90,612.94,9.73,0000 0000 0000 0000 000000
2015-12-16 00:20:10,0.20,1.98,0.00,14.01,18.49,22.34,15.09,50.18,1013.69,2067.00,2844.93,2701.26,3025.05,600.14,613.07,9.78,0000 0000 0000 0000 000000
2015-12-16 00:25:12,0.22,1.99,0.00,14.01,18.50,22.29,15.12,50.25,1013.68,2066.98,2841.20,2698.50,3022.01,599.92,612.85,9.83,0000 0000 0000 0000 000000
2015-12-16 00:30:13,0.19,2.00,0.00,14.03,18.52,22.35,15.01,50.18,1013.65,2066.95,2837.82,2696.02,3019.21,599.86,612.73,9.88,0000 0000 0000 0000 000000
2015-12-16 00:35:14,0.21,2.01,0.00,14.01,18.54,22.36,15.07,50.17,1013.45,2066.96,2834.32,2693.40,3016.25,600.01,612.78,9.93,0000 0000 0000 0000 000000
2015-12-16 00:40:16,0.21,2.02,0.00,14.04,18.55,22.38,15.14,50.24,1013.43,2066.86,2830.62,2690.66,3013.13,600.24,612.95,9.98,0000 0000 0000 0000 000000
2015-12-16 00:45:17,0.24,2.03,0.00,14.05,18.57,22.40,15.09,50.35,1013.34,2066.60,2826.27,2687.54,3009.62,600.07,612.64,10.03,0000 0000 0000 0000 000000
2015-12-16 00:50:18,0.24,2.04,0.00,14.08,18.58,22.40,15.06,50.23,1013.25,2066.31,2821.46,2684.17,3006.05,600.04,612.47,10.08,0000 0000 0000 0000 000000
2015-12-16 00:55:19,0.32,2.06,0.00,14.08,18.59,22.43,15.09,50.17,1013.22,2066.10,2816.07,2680.23,3001.64,600.14,612.63,10.13,0000 0000 0000 0000 000000
2015-12-16 01:00:21,0.25,2.07,0.00,14.07,18.60,22.42,15.06,50.24,1013.20,2066.02,2811.18,2676.79,2997.83,600.06,612.56,10.18,0000 0000 0000 0000 000000
2015-12-16 01:05:22,0.19,2.08,0.00,14.09,18.62,22.44,15.02,50.12,1013.20,2066.01,2807.78,2674.26,2995.05,599.88,612.30,10.23,0000 0000 0000 0000 000000
2015-12-16 01:10:23,0.17,2.09,0.00,14.11,18.62,22.43,15.02,50.06,1013.20,2066.00,2804.94,2672.10,2992.51,599.92,612.27,10.28,0000 0000 0000 0000 000000
2015-12-16 01:15:24,0.18,2.10,0.00,14.10,18.64,22.48,15.07,50.08,1013.17,2066.00,2802.21,2669.90,2990.04,600.21,612.66,10.33,0000 0000 0000 0000 000000
2015-12-16 01:20:25,0.26,2.11,0.00,14.10,18.64,22.53,15.02,49.99,1013.08,2066.00,2798.07,2667.05,2986.89,600.16,612.53,10.38,0000 0000 0000 0000 000000
2015-12-16 01:25:27,0.23,2.13,0.00,14.12,18.64,22.51,14.99,50.10,1013.11,2066.00,2793.98,2664.15,2983.68,600.12,612.50,10.43,0000 0000 0000 0000 000000
2015-12-16 01:30:28,0.19,2.14,0.00,14.12,18.64,22.49,15.12,49.98,1012.90,2066.00,2790.65,2661.71,2981.05,600.03,612.30,10.48,0000 0000 0000 0000 000000
2015-12-16 01:35:29,0.18,2.15,0.00,14.11,18.64,22.44,15.05,50.03,1012.73,2065.99,2787.63,2659.48,2978.48,600.09,612.22,10.53,0000 0000 0000 0000 000000
2015-12-16 01:40:31,0.25,2.16,0.00,14.13,18.65,22.48,15.03,50.01,1012.71,2065.99,2783.67,2656.66,2975.35,599.94,612.05,10.58,0000 0000 0000 0000 000000
2015-12-16 01:45:33,0.32,2.18,0.00,14.12,18.66,22.45,15.03,49.90,1012.71,2065.98,2778.38,2653.02,2971.39,600.11,612.19,10.63,0000 0000 0000 0000 000000
2015-12-16 01:50:34,0.29,2.19,0.00,14.13,18.67,22.46,15.00,50.06,1012.68,2065.98,2773.29,2649.51,2967.53,600.09,612.22,10.68,0000 0000 0000 0000 000000
2015-12-16 01:55:35,0.33,2.21,0.00,14.13,18.67,22.50,14.96,50.05,1012.71,2065.98,2767.70,2645.71,2963.32,599.84,611.91,10.73,0000 0000 0000 0000 000000
2015-12-16 02:00:36,0.30,2.22,0.00,14.11,18.67,22.49,15.03,49.95,1012.69,2065.97,2762.50,2642.08,2959.35,600.08,612.24,10.78,0000 0000 0000 0000 000000
2015-12-16 02:05:37,0.30,2.24,0.00,14.11,18.67,22.48,15.00,49.98,1012.58,2065.98,2757.33,2638.51,2955.34,599.96,611.97,10.83,0000 0000 0000 0000 000000
2015-12-16 02:10:39,0.29,2.25,0.00,14.14,18.67,22.54,15.11,49.98,1012.45,2065.98,2752.43,2635.07,2951.52,600.22,611.98,10.89,0000 0000 0000 0000 000000
2015-12-16 02:15:40,0.27,2.27,0.00,14.15,18.69,22.50,14.94,49.82,1012.35,2065.98,2748.21,2631.85,2947.83,599.63,611.44,10.94,0000 0000 0000 0000 000000
2015-12-16 02:20:42,0.26,2.28,0.00,14.15,18.69,22.49,15.01,49.95,1012.38,2065.96,2743.81,2628.72,2944.39,599.87,611.71,10.99,0000 0000 0000 0000 000000
2015-12-16 02:25:43,0.25,2.29,0.00,14.16,18.69,22.50,14.99,49.92,1012.40,2065.85,2739.48,2625.70,2941.10,599.82,611.68,11.04,0000 0000 0000 0000 000000
2015-12-16 02:30:45,0.23,2.31,0.00,14.15,18.69,22.50,14.98,49.99,1012.38,2065.83,2735.39,2622.93,2938.02,600.04,611.87,11.09,0000 0000 0000 0000 000000
2015-12-16 02:35:46,0.20,2.32,0.00,14.15,18.69,22.51,15.09,50.14,1012.23,2065.84,2731.85,2620.57,2935.41,600.10,611.85,11.14,0000 0000 0000 0000 000000
2015-12-16 02:40:47,0.23,2.33,0.00,14.16,18.69,22.53,14.94,50.06,1012.22,2065.88,2728.44,2618.08,2932.48,599.91,611.69,11.19,0000 0000 0000 0000 000000
2015-12-16 02:45:48,0.21,2.34,0.00,14.18,18.69,22.51,15.02,50.02,1012.22,2065.80,2724.80,2615.43,2929.50,600.18,611.78,11.24,0000 0000 0000 0000 000000
2015-12-16 02:50:50,0.27,2.35,0.00,14.17,18.69,22.49,14.83,49.75,1012.22,2065.72,2720.34,2612.30,2926.04,599.73,611.41,11.29,0000 0000 0000 0000 000000
2015-12-16 02:55:51,0.35,2.37,0.00,14.17,18.69,22.53,14.96,49.95,1012.22,2065.45,2714.47,2608.23,2921.57,599.92,611.63,11.34,0000 0000 0000 0000 000000
2015-12-16 03:00:53,0.38,2.39,0.00,14.17,18.69,22.51,14.96,50.07,1012.22,2065.22,2707.88,2603.79,2916.65,599.93,611.73,11.39,0000 0000 0000 0000 000000
2015-12-16 03:05:54,0.36,2.40,0.00,14.20,18.69,22.50,14.97,50.01,1012.22,2065.19,2701.73,2599.59,2912.03,600.11,611.75,11.44,0000 0000 0000 0000 000000
2015-12-16 03:10:56,0.35,2.42,0.00,14.18,18.69,22.51,14.92,49.92,1012.22,2065.16,2695.79,2595.53,2907.55,599.66,611.32,11.49,0000 0000 0000 0000 000000
2015-12-16 03:15:57,0.33,2.44,0.00,14.19,18.71,22.52,15.08,49.98,1012.22,2065.09,2690.14,2591.58,2903.19,599.96,611.57,11.54,0000 0000 0000 0000 000000
2015-12-16 03:20:58,0.36,2.46,0.00,14.18,18.72,22.53,15.02,49.88,1012.22,2065.12,2684.67,2587.73,2898.82,599.87,611.57,11.59,0000 0000 0000 0000 000000
2015-12-16 03:25:59,0.37,2.48,0.00,14.18,18.72,22.52,15.14,49.88,1012.20,2065.06,2678.34,2583.43,2894.10,600.09,611.75,11.64,0000 0000 0000 0000 000000
2015-12-16 03:31:00,0.36,2.49,0.00,14.17,18.72,22.50,14.97,49.91,1012.22,2065.05,2672.29,2579.29,2889.49,599.95,611.63,11.69,0000 0000 0000 0000 000000
2015-12-16 03:36:01,0.45,2.51,0.00,14.14,18.72,22.57,14.93,49.89,1012.20,2065.04,2665.43,2574.70,2884.39,599.69,611.51,11.74,0000 0000 0000 0000 000000
2015-12-16 03:41:03,0.47,2.54,0.00,14.17,18.72,22.56,14.94,49.77,1012.21,2065.01,2657.40,2569.45,2878.77,599.71,611.43,11.79,0000 0000 0000 0000 000000
2015-12-16 03:46:04,0.46,2.56,0.00,14.20,18.72,22.56,14.99,49.86,1012.18,2065.01,2649.82,2564.37,2873.20,599.98,611.58,11.84,0000 0000 0000 0000 000000
2015-12-16 03:51:06,0.43,2.58,0.00,14.22,18.72,22.54,15.01,49.89,1012.18,2065.00,2642.60,2559.66,2867.93,599.83,611.39,11.89,0000 0000 0000 0000 000000
2015-12-16 03:56:07,0.38,2.61,0.00,14.19,18.72,22.52,14.91,49.84,1011.97,2065.00,2636.01,2555.45,2863.17,599.78,611.34,11.94,0000 0000 0000 0000 000000
2015-12-16 04:01:08,0.38,2.62,0.00,14.18,18.72,22.55,14.98,49.87,1011.82,2065.00,2629.94,2551.30,2858.53,599.81,611.22,11.99,0000 0000 0000 0000 000000
2015-12-16 04:06:10,0.39,2.65,0.00,14.16,18.72,22.57,15.09,49.92,1011.84,2065.00,2623.62,2546.91,2853.63,600.10,611.60,12.04,0000 0000 0000 0000 000000
2015-12-16 04:11:11,0.34,2.66,0.00,14.16,18.72,22.56,14.97,49.94,1011.88,2065.00,2618.07,2543.14,2849.48,599.93,611.49,12.09,0000 0000 0000 0000 000000
2015-12-16 04:16:12,0.33,2.68,0.00,14.17,18.72,22.54,15.07,50.04,1011.77,2065.00,2612.67,2539.53,2845.51,600.31,611.58,12.14,0000 0000 0000 0000 000000
2015-12-16 04:21:13,0.32,2.70,0.00,14.17,18.72,22.54,15.00,49.92,1011.77,2065.00,2607.53,2535.98,2841.59,599.85,611.28,12.19,0000 0000 0000 0000 000000
2015-12-16 04:26:15,0.33,2.71,0.00,14.20,18.73,22.55,14.86,49.94,1011.83,2065.00,2602.41,2532.48,2837.70,599.67,611.10,12.24,0000 0000 0000 0000 000000
2015-12-16 04:31:16,0.32,2.73,0.00,14.18,18.74,22.55,15.13,50.09,1012.00,2064.99,2597.25,2528.93,2833.79,600.15,611.68,12.29,0000 0000 0000 0000 000000
2015-12-16 04:36:17,0.35,2.75,0.00,14.19,18.74,22.50,14.90,49.98,1011.78,2064.99,2591.96,2525.25,2829.77,599.98,611.34,12.34,0000 0000 0000 0000 000000
2015-12-16 04:41:19,0.33,2.76,0.00,14.18,18.74,22.51,14.97,50.13,1011.75,2064.99,2586.58,2521.65,2825.76,599.90,611.31,12.39,0000 0000 0000 0000 000000
2015-12-16 04:46:20,0.32,2.78,0.00,14.16,18.74,22.59,15.01,49.99,1011.73,2064.99,2581.58,2518.18,2821.90,600.08,611.52,12.44,0000 0000 0000 0000 000000
2015-12-16 04:51:22,0.32,2.80,0.00,14.21,18.75,22.53,15.05,50.08,1011.74,2064.99,2576.84,2514.81,2818.09,600.17,611.35,12.49,0000 0000 0000 0000 000000
2015-12-16 04:56:23,0.35,2.81,0.00,14.22,18.77,22.62,15.01,50.06,1011.73,2064.97,2571.40,2511.19,2814.18,600.22,611.50,12.54,0000 0000 0000 0000 000000
2015-12-16 05:01:24,0.36,2.83,0.00,14.20,18.76,22.56,14.97,50.05,1011.73,2064.96,2565.64,2507.35,2810.06,600.13,611.44,12.59,0000 0000 0000 0000 000000
2015-12-16 05:06:25,0.32,2.85,0.00,14.18,18.77,22.60,14.93,49.94,1011.75,2064.97,2560.54,2503.90,2806.24,599.79,611.19,12.64,0000 0000 0000 0000 000000
2015-12-16 05:11:26,0.30,2.87,0.00,14.18,18.77,22.60,15.02,50.05,1011.73,2064.97,2555.84,2500.57,2802.54,600.01,611.39,12.69,0000 0000 0000 0000 000000
2015-12-16 05:16:28,0.31,2.88,0.00,14.20,18.77,22.57,15.11,50.16,1011.73,2064.98,2551.13,2497.34,2798.93,600.30,611.77,12.74,0000 0000 0000 0000 000000
2015-12-16 05:21:29,0.27,2.90,0.00,14.22,18.77,22.58,15.06,50.28,1011.73,2064.97,2546.70,2494.38,2795.50,600.03,611.34,12.79,0000 0000 0000 0000 000000
2015-12-16 05:26:30,0.19,2.91,0.00,14.22,18.77,22.55,14.90,49.92,1011.73,2064.96,2543.64,2492.29,2793.13,599.81,611.11,12.84,0000 0000 0000 0000 000000
2015-12-16 05:31:32,0.16,2.92,0.00,14.20,18.77,22.57,15.02,50.02,1011.73,2064.95,2541.11,2490.57,2791.08,599.86,611.22,12.89,0000 0000 0000 0000 000000
2015-12-16 05:36:33,0.16,2.93,0.00,14.21,18.77,22.54,15.03,50.14,1011.73,2064.95,2538.63,2488.79,2789.12,600.19,611.44,12.95,0000 0000 0000 0000 000000
2015-12-16 05:41:34,0.15,2.93,0.00,14.19,18.77,22.58,15.13,50.09,1011.71,2064.95,2536.31,2487.13,2787.29,599.98,611.32,13.00,0000 0000 0000 0000 000000
2015-12-16 05:46:36,0.16,2.94,0.00,14.19,18.77,22.58,14.97,49.96,1011.71,2064.97,2534.17,2485.55,2785.36,599.60,610.94,13.05,0000 0000 0000 0000 000000
2015-12-16 05:51:37,0.18,2.95,0.00,14.21,18.76,22.61,15.06,49.92,1011.73,2064.97,2531.48,2483.65,2783.26,600.11,611.47,13.10,0000 0000 0000 0000 000000
2015-12-16 05:56:38,0.14,2.96,0.00,14.23,18.75,22.58,14.98,49.92,1011.73,2064.96,2529.26,2482.11,2781.37,599.73,611.01,13.15,0000 0000 0000 0000 000000
2015-12-16 06:01:39,0.15,2.97,0.00,14.22,18.74,22.57,14.97,49.96,1011.73,2064.94,2527.10,2480.57,2779.68,599.83,611.12,13.20,0000 0000 0000 0000 000000
2015-12-16 06:06:40,0.13,2.97,0.00,14.22,18.74,22.60,14.95,49.92,1011.71,2064.98,2525.11,2479.24,2777.99,599.85,611.13,13.25,0000 0000 0000 0000 000000
2015-12-16 06:11:42,0.14,2.98,0.00,14.21,18.74,22.60,15.04,49.94,1011.71,2064.96,2523.07,2477.78,2776.36,600.06,611.41,13.30,0000 0000 0000 0000 000000
2015-12-16 06:16:43,0.13,2.99,0.00,14.23,18.74,22.63,14.95,49.84,1011.73,2064.92,2521.10,2476.38,2774.69,599.68,610.92,13.35,0000 0000 0000 0000 000000
2015-12-16 06:21:45,0.13,2.99,0.00,14.26,18.74,22.58,15.00,49.91,1011.73,2064.95,2519.14,2474.96,2773.09,600.06,611.23,13.40,0000 0000 0000 0000 000000
2015-12-16 06:26:46,0.14,3.00,0.00,14.27,18.74,22.58,15.12,50.04,1011.72,2064.92,2517.08,2473.57,2771.43,600.15,611.32,13.45,0000 0000 0000 0000 000000
2015-12-16 06:31:47,0.12,3.01,0.00,14.28,18.74,22.58,14.90,49.82,1011.72,2064.93,2515.19,2472.12,2769.74,599.86,611.03,13.50,0000 0000 0000 0000 000000
2015-12-16 06:36:48,0.17,3.02,0.00,14.26,18.74,22.61,14.96,49.91,1011.71,2064.91,2512.82,2470.38,2767.72,599.79,611.00,13.55,0000 0000 0000 0000 000000
2015-12-16 06:41:50,0.14,3.02,0.00,14.25,18.74,22.63,15.02,49.92,1011.70,2064.86,2510.57,2468.85,2765.89,599.98,611.23,13.60,0000 0000 0000 0000 000000
2015-12-16 06:46:51,0.13,3.03,0.00,14.23,18.74,22.62,14.99,49.83,1011.54,2064.89,2508.65,2467.55,2764.44,600.12,611.19,13.65,0000 0000 0000 0000 000000
2015-12-16 06:51:52,0.12,3.04,0.00,14.24,18.74,22.56,15.04,49.92,1011.57,2064.83,2506.72,2466.26,2762.80,600.03,611.25,13.70,0000 0000 0000 0000 000000
2015-12-16 06:56:54,0.11,3.04,0.00,14.24,18.74,22.58,14.99,49.88,1011.58,2064.71,2504.81,2464.88,2761.27,600.15,611.43,13.75,0000 0000 0000 0000 000000
2015-12-16 07:01:55,0.14,3.05,0.00,14.20,18.74,22.67,14.96,49.98,1011.47,2064.83,2502.98,2463.68,2759.77,599.82,610.99,13.80,0000 0000 0000 0000 000000
2015-12-16 07:06:57,0.11,3.06,0.00,14.20,18.74,22.59,14.93,49.91,1011.65,2064.84,2501.12,2462.41,2758.26,599.64,610.95,13.85,0000 0000 0000 0000 000000
2015-12-16 07:11:58,0.11,3.06,0.00,14.20,18.74,22.58,15.00,50.08,1011.66,2064.83,2499.33,2461.11,2756.77,599.90,611.19,13.90,0000 0000 0000 0000 000000
2015-12-16 07:16:59,0.14,3.07,0.00,14.19,18.74,22.58,15.03,50.15,1011.42,2064.88,2497.43,2459.84,2755.25,600.11,611.28,13.95,0000 0000 0000 0000 000000
2015-12-16 07:22:01,0.14,3.07,0.00,14.18,18.74,22.62,14.99,50.19,1011.34,2064.92,2495.63,2458.60,2753.74,599.83,611.05,14.00,0000 0000 0000 0000 000000
2015-12-16 07:27:02,0.11,3.08,0.00,14.17,18.74,22.60,15.03,50.16,1011.27,2064.89,2493.85,2457.34,2752.26,600.32,611.50,14.05,0000 0000 0000 0000 000000
2015-12-16 07:32:04,0.11,3.09,0.00,14.20,18.72,22.59,15.00,50.24,1011.29,2064.82,2491.94,2456.05,2750.76,600.08,611.25,14.10,0000 0000 0000 0000 000000
2015-12-16 07:37:05,0.13,3.09,0.00,14.20,18.72,22.62,14.94,50.12,1011.28,2064.78,2490.03,2454.78,2749.33,599.74,610.80,14.15,0000 0000 0000 0000 000000
2015-12-16 07:42:06,0.13,3.10,0.00,14.19,18.72,22.56,15.08,50.15,1011.28,2064.90,2488.18,2453.62,2747.85,600.10,611.18,14.20,0000 0000 0000 0000 000000
2015-12-16 07:47:07,0.11,3.11,0.00,14.17,18.72,22.51,14.95,50.14,1011.28,2064.89,2486.28,2452.34,2746.39,599.94,611.12,14.25,0000 0000 0000 0000 000000
2015-12-16 07:52:09,0.13,3.11,0.00,14.18,18.70,22.51,15.09,50.17,1011.26,2064.96,2484.47,2451.22,2744.88,599.88,610.93,14.30,0000 0000 0000 0000 000000
2015-12-16 07:57:10,0.12,3.12,0.00,14.22,18.69,22.56,15.04,50.11,1011.25,2064.96,2482.55,2449.95,2743.48,600.12,611.14,14.35,0000 0000 0000 0000 000000
2015-12-16 08:02:12,0.13,3.13,0.00,14.22,18.69,22.53,14.96,50.16,1011.27,2064.96,2480.62,2448.72,2741.90,599.88,610.86,14.40,0000 0000 0000 0000 000000
2015-12-16 08:07:13,0.12,3.13,0.00,14.20,18.69,22.50,15.08,50.23,1011.31,2064.96,2478.72,2447.51,2740.38,600.13,611.17,14.45,0000 0000 0000 0000 000000
2015-12-16 08:12:15,0.12,3.14,0.00,14.20,18.67,22.49,15.02,50.30,1011.49,2064.97,2476.85,2446.33,2738.88,600.11,611.29,14.50,0000 0000 0000 0000 000000
2015-12-16 08:17:16,0.12,3.15,0.00,14.20,18.67,22.50,15.02,50.07,1011.72,2064.98,2474.98,2445.12,2737.40,600.15,611.49,14.55,0000 0000 0000 0000 000000
2015-12-16 08:22:17,0.18,3.15,0.00,14.20,18.67,22.46,15.06,50.08,1011.73,2064.95,2472.84,2443.49,2735.30,599.95,611.24,14.60,0000 0000 0000 0000 000000
2015-12-16 08:27:19,0.19,3.16,0.00,14.19,18.67,22.50,14.99,50.12,1011.67,2064.97,2469.72,2441.49,2733.14,600.21,611.46,14.65,0000 0000 0000 0000 000000
2015-12-16 08:32:20,0.12,3.17,0.00,14.18,18.65,22.45,15.01,49.88,1011.64,2064.98,2467.60,2440.27,2731.67,599.91,611.24,14.70,0000 0000 0000 0000 000000
2015-12-16 08:37:21,0.16,3.18,0.00,14.18,18.64,22.48,14.98,50.00,1011.68,2064.97,2465.60,2438.77,2729.79,599.81,611.22,14.75,0000 0000 0000 0000 000000
2015-12-16 08:42:22,0.17,3.19,0.00,14.14,18.64,22.48,15.01,49.96,1011.62,2064.97,2462.65,2436.92,2727.74,600.12,611.36,14.80,0000 0000 0000 0000 000000
2015-12-16 08:47:24,0.16,3.20,0.00,14.14,18.64,22.43,15.01,49.86,1011.72,2064.98,2460.46,2435.54,2725.93,600.20,611.68,14.85,0000 0000 0000 0000 000000
2015-12-16 08:52:25,0.15,3.20,0.00,14.12,18.64,22.44,14.97,50.03,1011.68,2064.98,2458.17,2433.99,2724.17,599.86,611.33,14.90,0000 0000 0000 0000 000000
2015-12-16 08:57:27,0.19,3.21,0.00,14.13,18.64,22.47,14.96,49.98,1011.68,2064.98,2455.47,2432.16,2721.94,599.87,611.26,14.95,0000 0000 0000 0000 000000
2015-12-16 09:02:28,0.21,3.22,0.00,14.15,18.64,22.45,14.96,50.06,1011.72,2064.98,2452.50,2430.12,2719.45,599.86,611.43,15.00,0000 0000 0000 0000 000000
2015-12-16 09:07:29,0.22,3.23,0.00,14.16,18.64,22.44,15.01,50.08,1011.73,2064.97,2449.44,2427.94,2716.96,599.88,611.35,15.06,0000 0000 0000 0000 000000
2015-12-16 09:12:30,0.22,3.25,0.00,14.15,18.64,22.44,14.95,50.07,1011.73,2064.98,2446.29,2425.75,2714.44,599.80,611.24,15.11,0000 0000 0000 0000 000000
2015-12-16 09:17:32,0.21,3.26,0.00,14.16,18.64,22.43,14.96,50.02,1011.73,2064.96,2443.17,2423.62,2712.06,599.87,611.31,15.16,0000 0000 0000 0000 000000
2015-12-16 09:22:33,0.22,3.27,0.00,14.15,18.65,22.51,15.08,50.15,1011.71,2064.96,2439.99,2421.40,2709.60,600.22,611.63,15.21,0000 0000 0000 0000 000000
2015-12-16 09:27:34,0.21,3.28,0.00,14.15,18.66,22.50,15.03,50.23,1011.67,2064.95,2436.95,2419.31,2707.21,600.00,611.42,15.26,0000 0000 0000 0000 000000
2015-12-16 09:32:35,0.21,3.29,0.00,14.16,18.67,22.47,15.04,50.12,1011.60,2064.96,2434.00,2417.23,2704.81,599.98,611.32,15.31,0000 0000 0000 0000 000000
2015-12-16 09:37:37,0.23,3.30,0.00,14.15,18.67,22.46,15.06,50.17,1011.63,2064.94,2430.96,2415.04,2702.28,600.03,611.41,15.36,0000 0000 0000 0000 000000
2015-12-16 09:42:38,0.21,3.31,0.00,14.16,18.65,22.46,15.00,50.14,1011.51,2064.89,2427.83,2412.79,2699.79,599.99,611.07,15.41,0000 0000 0000 0000 000000
2015-12-16 09:47:39,0.20,3.32,0.00,14.14,18.64,22.46,15.02,50.16,1011.32,2064.87,2424.78,2410.72,2697.40,600.19,611.38,15.46,0000 0000 0000 0000 000000
2015-12-16 09:52:41,0.19,3.33,0.00,14.14,18.64,22.43,15.03,50.19,1011.29,2064.84,2421.87,2408.79,2695.19,600.01,611.21,15.51,0000 0000 0000 0000 000000
2015-12-16 09:57:42,0.22,3.34,0.00,14.13,18.64,22.43,15.02,50.16,1011.27,2064.83,2418.82,2406.77,2692.89,600.10,611.36,15.56,0000 0000 0000 0000 000000
2015-12-16 10:02:43,0.22,3.35,0.00,14.14,18.64,22.43,15.08,50.37,1011.30,2064.90,2415.43,2404.85,2690.64,600.15,611.44,15.61,0000 0000 0000 0000 000000
2015-12-16 10:07:44,0.16,3.36,0.00,14.13,18.63,22.42,15.03,50.31,1011.34,2064.86,2412.47,2403.25,2688.65,600.20,611.46,15.66,0000 0000 0000 0000 000000
2015-12-16 10:12:46,0.18,3.37,0.00,14.13,18.62,22.41,15.01,50.26,1011.40,2064.93,2409.97,2401.73,2686.88,599.99,611.28,15.71,0000 0000 0000 0000 000000
2015-12-16 10:17:47,0.14,3.38,0.00,14.13,18.62,22.38,14.97,50.33,1011.40,2064.95,2407.61,2400.47,2685.31,599.88,611.21,15.76,0000 0000 0000 0000 000000
2015-12-16 10:22:48,0.16,3.39,0.00,14.13,18.62,22.41,15.02,50.11,1011.36,2064.95,2405.21,2399.03,2683.53,600.01,611.44,15.81,0000 0000 0000 0000 000000
2015-12-16 10:27:49,0.15,3.40,0.00,14.14,18.61,22.43,15.05,50.13,1011.34,2064.98,2403.08,2397.67,2681.89,599.90,611.17,15.86,0000 0000 0000 0000 000000
2015-12-16 10:32:50,0.13,3.40,0.00,14.14,18.60,22.45,15.03,50.09,1011.43,2064.96,2400.90,2396.49,2680.43,600.08,611.38,15.91,0000 0000 0000 0000 000000
2015-12-16 10:37:52,0.14,3.41,0.00,14.14,18.59,22.35,15.07,50.19,1011.42,2064.98,2398.85,2395.26,2678.82,599.89,611.22,15.96,0000 0000 0000 0000 000000
2015-12-16 10:42:53,0.14,3.42,0.00,14.14,18.59,22.38,14.97,50.13,1011.58,2064.98,2396.65,2393.95,2677.28,599.99,611.35,16.01,0000 0000 0000 0000 000000
2015-12-16 10:47:54,0.15,3.42,0.00,14.08,18.59,22.39,15.01,50.12,1011.72,2064.98,2394.59,2392.71,2675.69,600.12,611.71,16.06,0000 0000 0000 0000 000000
2015-12-16 10:52:56,0.13,3.43,0.00,14.07,18.59,22.38,15.05,50.23,1011.73,2064.99,2392.51,2391.54,2674.16,599.97,611.57,16.11,0000 0000 0000 0000 000000
2015-12-16 10:57:57,0.16,3.44,0.00,14.10,18.59,22.41,15.06,50.17,1011.73,2064.98,2390.36,2390.08,2672.34,600.25,611.84,16.16,0000 0000 0000 0000 000000
2015-12-16 11:02:58,0.19,3.45,0.00,14.10,18.59,22.44,15.01,50.18,1011.73,2064.96,2387.63,2388.21,2670.17,600.17,611.79,16.21,0000 0000 0000 0000 000000
2015-12-16 11:08:00,0.19,3.46,0.00,14.10,18.59,22.43,15.08,50.22,1011.73,2064.96,2384.81,2386.44,2668.09,600.07,611.63,16.26,0000 0000 0000 0000 000000
2015-12-16 11:13:01,0.19,3.47,0.00,14.10,18.59,22.44,14.98,50.13,1011.73,2064.98,2382.19,2384.72,2666.07,599.91,611.54,16.31,0000 0000 0000 0000 000000
2015-12-16 11:18:03,0.19,3.48,0.00,14.10,18.59,22.40,14.97,50.19,1011.73,2064.95,2379.48,2382.86,2663.89,599.87,611.50,16.36,0000 0000 0000 0000 000000
2015-12-16 11:23:04,0.20,3.49,0.00,14.08,18.59,22.40,15.00,50.25,1011.73,2064.94,2376.58,2380.88,2661.61,600.15,611.75,16.41,0000 0000 0000 0000 000000
2015-12-16 11:28:06,0.20,3.50,0.00,14.07,18.60,22.45,15.03,50.23,1011.73,2064.97,2373.81,2379.04,2659.48,599.71,611.38,16.46,0000 0000 0000 0000 000000
2015-12-16 11:33:07,0.20,3.51,0.00,14.10,18.61,22.40,15.07,50.27,1011.73,2064.97,2370.99,2377.18,2657.37,599.90,611.44,16.51,0000 0000 0000 0000 000000
2015-12-16 11:38:08,0.18,3.52,0.00,14.13,18.62,22.40,15.01,50.24,1011.75,2064.92,2368.20,2375.37,2655.28,599.94,611.41,16.56,0000 0000 0000 0000 000000
2015-12-16 11:43:10,0.20,3.53,0.00,14.10,18.62,22.44,15.02,50.30,1011.73,2064.96,2365.70,2373.54,2653.13,599.78,611.32,16.61,0000 0000 0000 0000 000000
2015-12-16 11:48:11,0.20,3.54,0.00,14.09,18.62,22.45,15.00,50.40,1011.73,2064.95,2362.99,2371.67,2650.95,600.19,611.78,16.66,0000 0000 0000 0000 000000
2015-12-16 11:53:12,0.20,3.55,0.00,14.10,18.62,22.41,15.03,50.43,1011.73,2064.89,2360.21,2369.76,2648.76,600.08,611.59,16.71,0000 0000 0000 0000 000000
2015-12-16 11:58:13,0.19,3.56,0.00,14.09,18.63,22.48,15.03,50.28,1011.73,2064.86,2357.40,2367.90,2646.61,599.80,611.46,16.76,0000 0000 0000 0000 000000
2015-12-16 12:03:15,0.18,3.57,0.00,14.09,18.64,22.42,15.06,50.16,1011.73,2064.91,2354.68,2366.28,2644.50,600.12,611.70,16.81,0000 0000 0000 0000 000000
2015-12-16 12:08:16,0.17,3.58,0.00,14.08,18.64,22.47,15.02,50.33,1011.73,2064.75,2352.01,2364.55,2642.40,600.18,611.76,16.86,0000 0000 0000 0000 000000
2015-12-16 12:13:17,0.21,3.59,0.00,14.07,18.64,22.44,15.08,50.33,1011.73,2064.78,2349.01,2362.71,2640.36,600.41,611.92,16.91,0000 0000 0000 0000 000000
2015-12-16 12:18:19,0.18,3.60,0.00,14.06,18.64,22.42,15.02,50.26,1011.72,2064.68,2346.39,2360.91,2638.24,599.71,611.40,16.96,0000 0000 0000 0000 000000
2015-12-16 12:23:20,0.18,3.61,0.00,14.06,18.63,22.41,15.00,50.28,1011.72,2064.61,2343.74,2359.20,2636.15,600.16,611.79,17.01,0000 0000 0000 0000 000000
2015-12-16 12:28:21,0.26,3.62,0.00,14.10,18.62,22.42,15.02,50.39,1011.69,2064.42,2340.13,2356.87,2633.60,600.09,611.72,17.06,0000 0000 0000 0000 000000
2015-12-16 12:33:22,0.40,3.64,0.00,14.10,18.62,22.43,15.07,50.34,1011.63,2064.32,2334.41,2353.25,2629.55,600.17,611.64,17.11,0000 0000 0000 0000 000000
2015-12-16 12:38:23,0.24,3.65,0.00,14.12,18.62,22.47,15.01,50.33,1011.47,2064.39,2330.71,2351.04,2627.02,599.90,611.25,17.16,0000 0000 0000 0000 000000
2015-12-16 12:43:24,0.20,3.66,0.00,14.12,18.62,22.40,15.06,50.30,1011.48,2064.39,2327.93,2349.31,2625.02,600.18,611.54,17.21,0000 0000 0000 0000 000000
2015-12-16 12:48:26,0.16,3.67,0.00,14.12,18.62,22.43,15.06,50.40,1011.70,2064.41,2325.33,2347.72,2623.24,599.92,611.40,17.26,0000 0000 0000 0000 000000
2015-12-16 12:53:28,0.20,3.68,0.00,14.10,18.62,22.41,14.95,50.33,1011.73,2064.61,2322.91,2346.28,2621.61,599.79,611.26,17.31,0000 0000 0000 0000 000000